Location: Unspecified
(0.0000°N, 0.0000°E)
Time: 22:51:19
(UTC-04:00)

Envisat - Pass Details

Date: 27 September 2021
Orbit: 764 x 766 km, 98.2° (Epoch: 26 October)

Event Time Altitude Azimuth Distance (km) Brightness Sun altitude
Rises 00:34:50 0° 16° (NNE) 3,212 6.4 -19.0°
Reaches altitude 10° 00:37:09 10° 19° (NNE) 2,289 5.7 -18.5°
Maximum altitude 00:42:09 69° 102° (ESE) 815 3.3 -17.2°
Drops below altitude 10° 00:47:12 10° 185° (S) 2,299 5.4 -15.9°
Sets 00:49:31 0° 187° (S) 3,227 6.2 -15.4°
